Location: Navajo
(48.7922°N, 105.0603°W)
Time: 06:57:31
(UTC+00:00)

Envisat - Visible Passes

Search period start: 28 May 2023 00:00
Search period end: 07 June 2023 00:00
Orbit: 763 x 765 km, 98.2° (Epoch: 27 May)

Date Brightness Start Highest point End Pass type
(mag) Time Alt. Az. Time Alt. Az. Time Alt. Az.
28 May 5.5 09:36:22 10° NE 09:39:20 15° E 09:42:18 10° ESE visible
30 May 5.1 10:00:12 10° NE 10:04:22 25° E 10:08:30 10° SSE visible
31 May 5.7 09:24:49 10° ENE 09:26:45 12° E 09:28:39 10° ESE visible
02 Jun 5.4 09:48:07 10° NE 09:51:49 20° E 09:55:29 10° SE visible
04 Jun 4.7 10:12:14 10° NNE 10:16:46 32° E 10:21:16 10° SSE visible
05 Jun 5.5 09:36:12 10° NE 09:39:13 16° E 09:42:15 10° SE visible
